Starlink 30292

operational
NORAD ID: 57844 Int'l Des: 2023-141 Owner: SPXS Country: US Constellation: starlink
LEOCIRCULAR

关于 Starlink 30292

正在加载描述...

实时位置

正在加载3D地球...

即将过境

高度历史

Altitude vs Time

uPlot chart will show altitude changes over time

两行轨道根数

1 57844U 23141E 25302.93065217 -.00002889 00000-0 -85510-4 0 9996
2 57844 53.1588 171.1078 0001083 103.3621 256.7500 15.30182901120315
Epoch: Oct 29, 2025 • Age: 30 hours

当前状态

高度 486.6 km
速度 7.62 km/s
星下点 -33.82°S, 36.79°E
发射日期 Sep 12, 2023
运行时间 2.1 years
类型 internet

技术详情

分类 Payload
质量 730.00 kg
干质量 700.00 kg
总质量 730.00 kg
长度 0.30 m
直径 4.10 m
跨度 29.00 m
形状 Box + pan
制造商 SPXS
平台类型 Starlink V2M
阶段状态 In Orbit
所有者/国家 SPXS/US

大型星座

Loading constellations...